Hovedside
METAR-TAF:

METAR-TAF

Lufthavner :

Ørsta/Volda lufthamn. Hovden

Ørsta-Volda, Norge

breddegrad: 62-11N, lengdegrad: 006-04E, høyde over havet: 7 m

Gjeldene værobservasjon

Denne rapporten ble laget for 56 minutter siden, klokken 06:20 UTC
Vind 1 kt fra skiftende retning
Temperatur 12°C
Luftfuktighet 50%
Trykk 1017 hPa
Sikt 10 km eller mer
ingen skyer under 1500 m og ingen bygeskyer

METAR: ENOV 230620Z VRB01KT CAVOK 12/02 Q1017 RMK WIND 2175FT 13017KT

Tid: 09:16 (07:16 UTC)


TAF: fraværende

Værobservasjoner og værvarsel for over 4000 flyplasser (METAR- og TAF-rapporter).

Tilgjengelige stasjoner er representert av de røde og gule prikkene på kartet.

Hold musepekeren over prikken for å se navnet på stasjonen.

Klikk så for å se værobservasjoner og -varsler.

For å forandre kartet kan du klikke på den grønne knappen med svart kryss for å zoome inn, på den grønne knappen med strek for å zoome ut, eller på de grønne pilene for å se tilstøtende kart.


METAR-TAF: